www.weatherandclimate.eu
WEATHER в Снежногорске
Time
(UTC), date
18 13.01
21 13.01
00 14.01
03 14.01
06 14.01
09 14.01
12 14.01
15 14.01
18 14.01
21 14.01
00 15.01
03 15.01
06 15.01
09 15.01
12 15.01
15 15.01
18 15.01
21 15.01
00 16.01
03 16.01
06 16.01
09 16.01
12 16.01
15 16.01
18 16.01
21 16.01
00 17.01
03 17.01
06 17.01
09 17.01
12 17.01
15 17.01
18 17.01
21 17.01
00 18.01
03 18.01
06 18.01
09 18.01
12 18.01
15 18.01
18 18.01
21 18.01
00 19.01
03 19.01
06 19.01
09 19.01
12 19.01
15 19.01
18 19.01
21 19.01
00 20.01
03 20.01
06 20.01
09 20.01
12 20.01
Wind
(dir.,m/s)
Visibility Phenomena Clouds Т
(С)
Тd
(С)
f
(%)
Тe
(С)
Тes
(С)
Comfort P
(hPa)
Po
hPa)
Тmin
(С)
Tmax
(С)
R
(mm)
R24
(mm)
S
(sm)
NW 3 10 km ясно -20.9 -24.9 70 -29 -29 very cold 1004.0 991.4
NW 5 10 km ясно -27.3 -31.2 69 -39 -39 risk of frostbite 1006.1 993.0
W 5 10 km ясно -32.7 -36.4 69 -46 -46 risk of frostbite 1008.3 995.0 -32.7 100
W 4 10 km ясно -36.4 -40.7 64 -49 -49 risk of frostbite 1011.1 997.5 -36.4
W 4 20 km ясно -37.6 -41.8 65 -51 -51 risk of frostbite 1013.5 999.8
W 4 20 km ясно -38.8 -43.1 64 -52 -52 risk of frostbite 1016.8 1003.0
W 4 10 km ясно -39.2 -43.1 66 -53 -53 risk of frostbite 1019.6 1005.7 -32.7
W 3 10 km ясно -40.2 -44.1 66 -52 -52 risk of frostbite 1022.1 1008.1
W 1 10 km ясно -42.2 -46.1 65 -48 -48 risk of frostbite 1024.8 1010.7
W 2 10 km ясно -42.2 -46.1 65 -52 -52 risk of frostbite 1027.3 1013.1
NW 1 10 km ясно -43.7 -47.4 67 -49 -49 risk of frostbite 1028.9 1014.7 -43.7 100
NW 2 10 km ясно -44.7 -48.3 67 -55 -55 risk of frostbite 1030.4 1016.2 -44.7
0 20 km 4/0
[Ci fib]
-44.4 -47.5 71 -44 -44 risk of frostbite 1032.0 1017.8
0 20 km 9/0
[Ci fib]
-44.0 -47.5 68 -44 -44 risk of frostbite 1034.1 1019.9
0 10 km 10/0
[Cs]
-44.0 -47.5 68 -44 -44 risk of frostbite 1035.3 1021.1 -44.0
NE 1 10 km 4/0
[Cs]
-44.2 -47.5 69 -50 -50 risk of frostbite 1035.4 1021.2
NE 1 10 km ясно -43.8 -46.8 72 -49 -49 risk of frostbite 1035.2 1021.0
NE 2 10 km ясно -44.3 -47.5 70 -54 -54 risk of frostbite 1034.5 1020.3
E 3 10 km ясно -40.2 -43.3 72 -52 -52 risk of frostbite 1034.2 1020.0 -45.0 99
E 4 10 km ясно -40.7 -44.5 67 -54 -54 risk of frostbite 1033.1 1019.0
NE 3 20 km ясно -38.2 -42.3 65 -49 -49 risk of frostbite 1032.0 1018.0
NE 3 20 km ясно -37.0 -41.1 65 -48 -48 risk of frostbite 1031.2 1017.4
NE 3 20 km 4/0
[Ci fib]
-35.5 -39.7 65 -46 -46 risk of frostbite 1030.2 1016.4 -35.5
NE 3 10 km ясно -34.5 -38.8 65 -45 -45 risk of frostbite 1028.7 1015.0
NE 3 10 km ясно -35.0 -39.4 64 -46 -46 risk of frostbite 1027.6 1013.8
NE 3 10 km ясно -32.6 -36.1 71 -43 -43 risk of frostbite 1026.4 1012.8
NE 2 10 km 4/0
[Ci fib]
-33.8 -38.2 64 -42 -42 risk of frostbite 1024.6 1011.0 -35.0 99
E 3 10 km 4/0
[]
-33.6 -37.9 65 -44 -44 risk of frostbite 1022.1 1008.5
E 3 20 km 6/0
[Ci fib]
-33.8 -38.2 64 -44 -44 risk of frostbite 1019.5 1005.9
NE 3 20 km 8/0
[Ci fib]
-31.7 -36.1 65 -42 -42 risk of frostbite 1017.0 1003.6
NE 3 10 km 4/0
[As op Ci fib]
-29.0 -33.5 65 -38 -38 risk of frostbite 1013.0 999.7 -29.0
NE 4
{10}
10 km 4/0
[Ci fib]
-25.0 -28.8 71 -35 -35 risk of frostbite 1007.6 994.7
E 4
{10}
10 km 10/0 2000 м
[Ac lent]
-20.1 -24.1 70 -29 -29 very cold 1004.2 991.6
E 4
{11}
10 km slightsnow 10/0 2000 м
[Ac As]
-18.7 -22.0 75 -27 -27 very cold 1003.2 990.7
SE 3 10 km slightsnow 10/0 2000 м
[Ac As]
-21.4 -24.7 75 -29 -29 very cold 1002.9 990.2 -29.0 2 100
SE 3 10 km slightsnow 10/0 2000 м
[Ac As]
-21.6 -25.6 70 -30 -30 very cold 1002.1 989.4
SE 3 20 km {snow} 10/0 2000 м
[Ac As]
-21.7 -25.7 70 -30 -30 very cold 1002.2 989.5
E 3 20 km 10/0
[Ac As]
-21.3 -25.3 70 -29 -29 very cold 1002.3 989.6
E 2 10 km 10/0 2000 м
[Ac As]
-22.1 -26.1 70 -28 -28 very cold 1002.6 989.9 -21.3 0.0
E 1 10 km 10/0
[Ac As]
-21.7 -25.7 70 -25 -25 very cold 1002.4 989.7
E 1 10 km slightsnow 10/0 2000 м
[Ac As]
-21.6 -25.6 70 -25 -25 very cold 1002.6 989.9
0 10 km slightsnow 10/0 2000 м
[Ac As]
-23.9 -27.8 70 -24 -24 very cold 1003.9 991.1
E 1 10 km slightsnow 10/0 2000 м
[Ac As]
-22.6 -26.6 70 -26 -26 very cold 1004.8 992.1 -23.9 0.8 100
E 1 10 km slightsnow 10/0 2000 м
[Ac As]
-24.2 -28.1 70 -28 -28 very cold 1006.7 993.8 -24.2
E 1 10 km slightsnow 10/0 2000 м
[Ac trans Cs]
-24.3 -28.2 70 -28 -28 very cold 1008.9 996.0
E 1 20 km {snow} 4/0 2000 м
[Ac lent]
-26.3 -30.1 70 -30 -30 very cold 1011.7 998.5
E 1 50 km {snow} ясно -28.5 -32.9 66 -32 -32 risk of frostbite 1013.6 1000.4 -22.6 0.2
0 10 km ясно -30.6 -35.1 65 -31 -31 risk of frostbite 1015.5 1002.2
NE 1 10 km ясно -31.1 -35.5 65 -35 -35 risk of frostbite 1017.3 1003.9
NE 1 10 km ясно -32.4 -36.9 64 -37 -37 risk of frostbite 1018.6 1005.2
NE 2 10 km ясно -35.4 -39.7 65 -44 -44 risk of frostbite 1019.8 1006.1 -35.4 99
NE 1 10 km ясно -36.7 -41.1 64 -42 -42 risk of frostbite 1021.2 1007.5 -36.7
NE 1 20 km ясно -38.4 -42.7 64 -43 -43 risk of frostbite 1022.7 1008.8
E 1 20 km ясно -38.8 -43.1 64 -44 -44 risk of frostbite 1024.3 1010.4
NE 1 10 km ясно -41.5 -45.6 64 -47 -47 risk of frostbite 1025.9 1011.8 -35.4
Weather station location Снежногорск (Krasnoyarsk territory, Russia): latitude 68.10 longitude 87.77 Height above sea level 94 m.
The archive shows weather in в Снежногорске for the last week. For the whole month and for the previous months, starting from January 2011, you can obtain archived data by selecting the date range of interest from the drop-down list and clicking the "Find!".
*Decide who are you:
Attention! The time in the tables is UTC. To get the local time, you must add an amendment that is equal to 7 h.
See also the weather archive in nearby cities and at nearby weather stations:
Partners of our site:
Column explanations:
  • Wind - indicated wind speed in m/s - average for 10 minutes, gusts in time and between periods (in brackets) and the direction from which the wind blows: N - North, NE - North-East, E - East, SE - South-East , S - South, SW - South-West, W - West, NW - North-West.
  • Visibility - horizontal visibility range in meters or kilometers. When visibility is from 1 to 10 km in the absence of precipitation, haze is usually observed, and when visibility is reduced to 1 km or less, fog is observed. In dry weather, visibility may be reduced by smoke, dust, or haze.
  • Phenomena - atmospheric phenomena observed during the period or in the last hour before the period are indicated; curly brackets indicate phenomena observed between periods (1-3 hours before the period); square brackets indicate hail or ice deposits with their diameter in mm.
  • Clouds - are through slash total and lower clouds in points, and the height of the lower border of the cloud in meters; square brackets contain cloud forms: Ci - Cirrus, Cs - Cirrostratus, Cc - Cirrocumulus, Ac - Altocumulus, As - Altostratus, Sc - Stratocumulus, Ns - Nimbostratus, Cu - Cumulus, Cb - Cumulonimbus. For more information about cloud classification, see the cloud Atlas (PDF).
  • T - Air temperature - temperature measured at a height of 2 m above the ground.
  • Td - Dew point temperature - the temperature is lowered to that contained in the air, the water vapor reaches saturation.
  • f - Relative humidity measured at a height of 2 m above the ground.
  • Te - Effective temperature is the temperature that a seasonally dressed person feels in the shade. Characteristic of stuffy weather. The calculation takes into account the influence of air humidity and wind speed on a person’s heat.
  • Tes - Effective sun temperature - the temperature that a person feels, adjusted for solar heating. Characteristics of the sultry weather. Depends on the height of the sun above the horizon, cloud cover and wind speed. At night, in cloudy weather, as well as in winds of 12 m/s or more, the correction is zero.
  • P - Atmospheric pressure - atmospheric pressure reduced to sea level.
  • Po - Atmospheric pressure - atmospheric pressure measured at the station level.
  • Tmin - Minimum temperature - minimum air temperature at a height of 2 m above the ground.
  • Tmax - Maximum temperature - maximum air temperature at a height of 2 m above the ground.
  • R - Precipitation - The amount of precipitation over a period of time, mm. When you hover over the number, the time period for which the specified amount of precipitation has fallen.
  • R24 - Количество осадков - The amount of precipitation in 24 hours, mm.
  • S - Snow cover - The height of the snow cover. When you hover the mouse over the number - the state of the snow cover and the degree of coverage in points.